FW7501 Weather Reports


time (UTC)temp
C
wind
direction
speed
KPH
gust
KPH
rain 1hr
cm
rain 24hr
cm
rain mn
cm
humidity
%
barometer
mb
20260509061513 12 151 8.0 17.7 0.00 0.00 0.00 82 1027.7
20260509061004 12 164 11.3 17.7 0.00 0.00 0.00 82 1027.6
20260509060509 12 180 11.3 17.7 0.00 0.00 0.00 82 1027.6
20260509055005 12 168 9.7 19.3 0.00 0.00 0.00 83 1027.6
20260509054003 12 197 9.7 17.7 0.00 0.00 0.00 83 1027.3
20260509052510 12 195 14.5 22.5 0.00 0.00 0.00 82 1027.4
20260509051505 12 200 16.1 20.9 0.00 0.00 0.00 85 1027.3
20260509050506 12 172 12.9 20.9 0.00 0.00 0.00 85 1027.4
20260509045505 12 185 11.3 22.5 0.00 0.00 0.00 86 1027.6
20260509045005 12 206 14.5 24.1 0.00 0.00 0.00 86 1027.6
20260509044004 12 170 14.5 19.3 0.00 0.00 0.00 87 1027.5
20260509042007 12 185 12.9 20.9 0.00 0.00 0.00 90 1027.7
20260509041508 12 185 12.9 19.3 0.00 0.00 0.00 90 1027.6
20260509041004 12 194 11.3 17.7 0.00 0.00 0.00 90 1027.5
20260509040012 11 180 11.3 17.7 0.00 0.00 0.00 90 1027.6
20260509035508 11 155 11.3 17.7 0.00 0.00 0.00 90 1027.7
20260509035008 11 140 9.7 17.7 0.00 0.00 0.00 90 1027.6
20260509034506 11 190 11.3 17.7 0.00 0.00 0.00 90 1027.6
20260509034009 11 169 9.7 19.3 0.00 0.00 0.00 90 1027.7
20260509033509 11 175 12.9 17.7 0.00 0.00 0.00 90 1027.7
20260509032008 11 156 8.0 17.7 0.00 0.00 0.00 90 1027.8
20260509031510 11 180 11.3 17.7 0.00 0.00 0.00 90 1027.9
20260509031004 11 170 9.7 17.7 0.00 0.00 0.00 90 1028.0
20260509030505 11 185 11.3 19.3 0.00 0.00 0.00 90 1028.0
20260509030014 11 193 11.3 22.5 0.00 0.00 0.00 90 1028.0
20260509025510 11 170 14.5 22.5 0.00 0.00 0.00 90 1028.0
20260509025004 11 189 12.9 19.3 0.00 0.00 0.00 90 1028.1
20260509024009 11 191 9.7 20.9 0.00 0.00 0.00 90 1028.1
20260509023508 11 195 12.9 20.9 0.00 0.00 0.00 91 1028.2
20260509022004 11 198 12.9 19.3 0.00 0.00 0.00 91 1028.4
20260509021517 11 180 11.3 19.3 0.00 0.00 0.00 90 1028.4
20260509021004 11 189 11.3 19.3 0.00 0.03 0.00 90 1028.4
20260509020503 11 185 11.3 19.3 0.00 0.03 0.00 91 1028.4
20260509020012 11 205 12.9 17.7 0.00 0.03 0.00 91 1028.5
20260509015504 11 180 9.7 19.3 0.00 0.03 0.00 91 1028.6
20260509015004 11 175 14.5 20.9 0.00 0.03 0.00 90 1028.6
20260509014510 11 193 14.5 20.9 0.00 0.03 0.00 90 1028.6
20260509014004 11 185 12.9 19.3 0.00 0.03 0.00 91 1028.6
20260509013508 11 191 11.3 19.3 0.00 0.03 0.00 91 1028.6
20260509013012 11 163 9.7 19.3 0.00 0.03 0.00 91 1028.6
20260509012504 11 185 12.9 19.3 0.00 0.03 0.00 90 1028.5
20260509011505 11 189 11.3 17.7 0.00 0.03 0.00 91 1028.5
20260509011005 11 170 9.7 19.3 0.00 0.03 0.00 90 1028.4
20260509010504 11 198 11.3 19.3 0.00 0.03 0.00 91 1028.5
20260509010012 11 166 11.3 24.1 0.00 0.03 0.00 91 1028.4
20260509005503 10 195 16.1 24.1 0.00 0.03 0.00 91 1028.5
20260509005006 11 175 16.1 24.1 0.00 0.03 0.00 91 1028.3
20260509004510 10 202 11.3 24.1 0.00 0.03 0.00 91 1028.3
20260509003504 10 204 14.5 24.1 0.00 0.03 0.00 91 1028.3
20260509003021 10 185 16.1 24.1 0.00 0.03 0.00 90 1028.4
20260509002503 10 195 14.5 25.7 0.00 0.03 0.00 91 1028.4
20260509002003 10 189 16.1 25.7 0.00 0.03 0.00 90 1028.4
20260509001518 10 201 16.1 24.1 0.00 0.03 0.00 91 1028.4
20260509001005 10 197 16.1 22.5 0.00 0.03 0.00 91 1028.4
20260509000512 10 185 14.5 22.5 0.00 0.03 0.00 91 1028.3
20260509000004 10 189 12.9 24.1 0.00 0.03 0.00 91 1028.2
20260508235504 10 199 17.7 24.1 0.00 0.03 0.00 90 1028.2
20260508235008 10 185 14.5 25.7 0.00 0.03 0.00 91 1028.2
20260508234508 10 180 17.7 25.7 0.00 0.03 0.00 90 1028.0
20260508234003 10 199 19.3 25.7 0.00 0.03 0.00 91 1028.0
20260508233507 10 175 17.7 25.7 0.00 0.03 0.00 90 1027.9
20260508233007 10 205 14.5 25.7 0.00 0.03 0.00 90 1028.0
20260508232508 10 243 17.7 25.7 0.00 0.03 0.00 91 1028.0
20260508232008 10 213 12.9 19.3 0.00 0.03 0.00 91 1028.0
20260508231516 10 208 11.3 22.5 0.00 0.03 0.00 91 1027.9
20260508231007 10 185 12.9 22.5 0.00 0.03 0.00 90 1027.9
20260508230504 10 196 16.1 22.5 0.00 0.03 0.00 90 1027.9
20260508225507 10 185 12.9 22.5 0.00 0.03 0.00 90 1027.9
20260508224520 10 191 16.1 25.7 0.00 0.03 0.00 91 1027.8
20260508223506 10 214 12.9 22.5 0.00 0.03 0.00 90 1027.8
20260508223023 10 210 9.7 24.1 0.00 0.03 0.00 90 1027.8
20260508222504 10 189 14.5 24.1 0.00 0.03 0.00 90 1027.7
20260508222012 10 215 16.1 22.5 0.00 0.03 0.00 90 1027.7
20260508221525 10 191 9.7 17.7 0.00 0.03 0.00 90 1027.6
20260508221004 10 195 11.3 19.3 0.00 0.03 0.00 90 1027.6
20260508220508 10 214 12.9 22.5 0.00 0.03 0.00 90 1027.5
20260508220023 10 214 14.5 22.5 0.00 0.03 0.00 90 1027.5
20260508215509 10 205 11.3 17.7 0.00 0.03 0.00 90 1027.6
20260508215010 10 185 12.9 20.9 0.00 0.03 0.00 90 1027.5
20260508214010 10 200 12.9 20.9 0.00 0.03 0.00 90 1027.4
20260508213507 10 185 9.7 19.3 0.00 0.03 0.00 90 1027.4
20260508213031 10 189 11.3 19.3 0.00 0.03 0.00 90 1027.4
20260508212508 10 175 11.3 19.3 0.00 0.03 0.00 90 1027.4
20260508212003 10 191 14.5 19.3 0.00 0.03 0.00 90 1027.3
20260508211510 10 200 8.0 19.3 0.00 0.03 0.00 90 1027.4
20260508211009 10 202 12.9 17.7 0.00 0.03 0.00 90 1027.3
20260508210504 9 190 11.3 17.7 0.00 0.03 0.00 90 1027.3
20260508210015 10 197 6.4 17.7 0.00 0.03 0.00 90 1027.2
20260508205507 9 199 6.4 17.7 0.00 0.03 0.00 90 1027.2
20260508205009 9 206 8.0 17.7 0.00 0.03 0.00 90 1027.2
20260508204522 9 196 12.9 19.3 0.00 0.03 0.00 90 1027.1
20260508204005 9 180 11.3 20.9 0.00 0.03 0.00 90 1026.9
20260508203510 9 189 12.9 20.9 0.00 0.03 0.00 90 1026.9
20260508203018 9 204 12.9 20.9 0.00 0.03 0.00 90 1027.1
20260508202505 9 210 11.3 20.9 0.00 0.03 0.00 90 1027.1
20260508202008 9 197 12.9 19.3 0.00 0.03 0.00 90 1027.0
20260508201519 9 217 11.3 17.7 0.00 0.03 0.00 90 1026.9
20260508201013 9 199 12.9 19.3 0.00 0.03 0.00 90 1026.9
20260508200504 9 205 8.0 19.3 0.00 0.03 0.00 90 1027.0
20260508200012 9 202 8.0 16.1 0.00 0.03 0.00 90 1026.9
20260508195507 9 193 6.4 20.9 0.00 0.03 0.00 90 1026.9
20260508195007 9 193 14.5 20.9 0.00 0.03 0.00 90 1026.9
20260508194517 9 214 9.7 20.9 0.00 0.03 0.00 90 1026.8
20260508194009 9 222 12.9 20.9 0.00 0.03 0.00 90 1026.7
20260508193507 9 193 9.7 17.7 0.00 0.03 0.00 90 1026.7
20260508193019 9 199 9.7 17.7 0.00 0.03 0.00 90 1026.6
20260508192010 9 185 9.7 16.1 0.00 0.03 0.00 90 1026.4
20260508191530 9 185 11.3 19.3 0.00 0.03 0.00 89 1026.4
20260508191007 9 180 12.9 19.3 0.00 0.03 0.00 89 1026.4
20260508190508 9 189 11.3 22.5 0.00 0.03 0.00 89 1026.3
20260508190033 9 197 11.3 22.5 0.00 0.03 0.00 89 1026.4
20260508185511 9 191 11.3 19.3 0.00 0.03 0.00 89 1026.3
20260508185010 9 189 11.3 19.3 0.00 0.05 0.00 89 1026.4
20260508184518 9 180 11.3 17.7 0.00 0.05 0.00 89 1026.4
20260508184004 9 185 11.3 17.7 0.00 0.05 0.00 89 1026.3
20260508183507 9 185 12.9 17.7 0.00 0.05 0.00 89 1026.3
20260508183022 9 193 8.0 17.7 0.00 0.03 0.00 89 1026.2
20260508182509 9 185 9.7 17.7 0.00 0.03 0.00 89 1026.3
20260508182008 9 201 8.0 14.5 0.00 0.03 0.00 89 1026.2
20260508181540 9 190 8.0 16.1 0.00 0.03 0.00 89 1026.2
20260508181011 9 189 11.3 17.7 0.00 0.03 0.00 89 1026.1
20260508180508 9 224 11.3 17.7 0.00 0.03 0.00 89 1026.2
20260508180026 9 214 11.3 17.7 0.00 0.03 0.00 89 1026.2
20260508175510 9 218 11.3 17.7 0.00 0.03 0.00 88 1026.2
20260508175009 9 217 9.7 16.1 0.00 0.03 0.00 88 1026.2
20260508174530 9 220 8.0 16.1 0.00 0.03 0.00 88 1026.2
20260508174009 9 212 4.8 11.3 0.00 0.03 0.00 88 1026.1
20260508173509 9 210 6.4 11.3 0.00 0.03 0.00 88 1026.1
20260508173003 9 195 6.4 12.9 0.00 0.03 0.00 88 1026.1
20260508172505 9 207 6.4 12.9 0.00 0.03 0.00 88 1026.2
20260508172003 9 189 4.8 8.0 0.00 0.03 0.00 88 1026.2
20260508171505 9 219 3.2 8.0 0.00 0.03 0.00 88 1026.2
20260508171003 9 196 4.8 8.0 0.00 0.03 0.00 88 1026.3
20260508170004 9 196 3.2 11.3 0.00 0.03 0.00 88 1026.2
20260508165502 9 194 6.4 11.3 0.00 0.03 0.00 88 1026.1
20260508164505 9 210 6.4 9.7 0.00 0.03 0.00 88 1026.1
20260508164006 9 205 4.8 9.7 0.00 0.03 0.00 87 1026.1
20260508163504 9 221 3.2 8.0 0.00 0.03 0.00 87 1026.1
20260508162505 10 194 3.2 8.0 0.00 0.03 0.00 87 1026.2
20260508162006 9 202 4.8 8.0 0.00 0.03 0.00 87 1026.2
20260508161506 9 193 4.8 8.0 0.00 0.03 0.00 87 1026.2
20260508161003 9 185 1.6 6.4 0.00 0.03 0.00 87 1026.2
20260508160503 9 210 1.6 6.4 0.00 0.03 0.00 87 1026.2
20260508160006 9 207 4.8 6.4 0.00 0.03 0.00 87 1026.2
20260508155503 9 205 3.2 6.4 0.00 0.03 0.00 87 1026.2
20260508155003 9 205 3.2 6.4 0.00 0.03 0.00 87 1026.2
20260508153504 9 185 1.6 8.0 0.00 0.03 0.00 86 1026.3
20260508153012 9 198 3.2 8.0 0.00 0.03 0.00 86 1026.1
20260508152503 9 195 3.2 4.8 0.00 0.03 0.00 86 1026.1
20260508152008 9 214 1.6 8.0 0.00 0.03 0.00 86 1026.2
20260508151508 9 212 4.8 8.0 0.00 0.03 0.00 86 1026.2
20260508151006 9 209 4.8 8.0 0.00 0.03 0.00 86 1026.2
20260508150513 9 218 4.8 8.0 0.00 0.03 0.00 86 1026.2
20260508150005 9 217 4.8 11.3 0.00 0.03 0.00 86 1026.2
20260508145505 9 185 4.8 14.5 0.00 0.03 0.00 86 1026.2
20260508145003 9 158 9.7 16.1 0.00 0.03 0.00 86 1026.2
20260508144503 9 200 11.3 17.7 0.00 0.03 0.00 86 1026.2
20260508144003 9 204 9.7 17.7 0.00 0.03 0.00 85 1026.2
20260508143004 9 193 9.7 14.5 0.00 0.03 0.00 85 1026.2
20260508142004 9 180 8.0 16.1 0.00 0.03 0.00 85 1026.3
20260508141514 9 201 9.7 12.9 0.00 0.03 0.00 85 1026.2
20260508141005 9 175 4.8 9.7 0.00 0.03 0.00 85 1026.2
20260508140017 9 185 4.8 9.7 0.00 0.03 0.00 85 1026.2
20260508135003 9 189 4.8 11.3 0.00 0.03 0.03 84 1026.2
20260508134003 9 189 3.2 8.0 0.00 0.03 0.03 84 1026.3
20260508133506 9 212 4.8 8.0 0.00 0.03 0.03 84 1026.3
20260508133007 9 206 6.4 9.7 0.00 0.03 0.03 84 1026.4
20260508132505 9 226 3.2 11.3 0.00 0.03 0.03 84 1026.5
20260508131512 9 226 4.8 8.0 0.00 0.03 0.03 84 1026.6
20260508130008 10 200 4.8 11.3 0.00 0.03 0.03 83 1026.6
20260508125507 10 207 8.0 12.9 0.00 0.03 0.03 83 1026.6
20260508125009 10 216 3.2 14.5 0.00 0.03 0.03 83 1026.6
20260508124505 10 203 6.4 14.5 0.00 0.03 0.03 83 1026.6
20260508124008 10 237 4.8 16.1 0.00 0.03 0.03 83 1026.6
20260508123022 10 206 8.0 22.5 0.00 0.03 0.03 83 1026.4
20260508122503 10 200 12.9 22.5 0.00 0.03 0.03 83 1026.4
20260508122006 10 211 9.7 22.5 0.00 0.03 0.03 83 1026.3
20260508121509 10 202 12.9 22.5 0.00 0.03 0.03 83 1026.4
20260508121003 10 220 11.3 22.5 0.00 0.03 0.03 83 1026.4
20260508120504 10 213 12.9 17.7 0.00 0.03 0.03 83 1026.4
20260508120021 10 203 8.0 16.1 0.00 0.03 0.03 83 1026.5
20260508115505 10 208 9.7 14.5 0.00 0.03 0.03 84 1026.5
20260508113508 10 208 9.7 16.1 0.00 0.03 0.03 83 1026.1
20260508113016 10 192 8.0 16.1 0.00 0.03 0.03 83 1026.0
20260508112508 10 191 8.0 16.1 0.00 0.03 0.03 83 1026.0
20260508112009 10 168 9.7 16.1 0.00 0.03 0.03 83 1026.0
20260508111514 11 158 9.7 16.1 0.00 0.03 0.03 83 1026.0
20260508111012 11 175 9.7 17.7 0.00 0.03 0.03 83 1026.0
20260508110503 11 138 12.9 17.7 0.00 0.03 0.03 83 1026.0
20260508110007 11 194 9.7 16.1 0.00 0.03 0.03 83 1026.0
20260508105505 11 201 8.0 14.5 0.00 0.03 0.03 83 1026.0
20260508105008 11 175 9.7 14.5 0.00 0.03 0.03 83 1026.0
20260508104512 11 165 6.4 12.9 0.00 0.03 0.03 83 1026.0
20260508104009 11 195 6.4 16.1 0.00 0.03 0.03 83 1025.9
20260508103505 11 194 8.0 17.7 0.00 0.03 0.03 83 1026.0
20260508103029 11 195 12.9 17.7 0.00 0.03 0.03 83 1026.0
20260508102508 11 175 9.7 19.3 0.00 0.03 0.03 83 1025.8
20260508102004 11 180 12.9 19.3 0.00 0.03 0.03 84 1025.7
20260508101008 11 180 12.9 24.1 0.00 0.03 0.03 84 1025.6
20260508100510 11 180 9.7 24.1 0.00 0.03 0.03 83 1025.6
20260508095507 11 194 9.7 19.3 0.00 0.03 0.03 83 1025.6
20260508095013 11 189 9.7 19.3 0.00 0.03 0.03 82 1025.5
20260508094512 11 170 9.7 19.3 0.00 0.03 0.03 82 1025.7
20260508094007 11 168 11.3 19.3 0.00 0.03 0.03 82 1025.6
20260508093507 11 172 8.0 17.7 0.00 0.03 0.03 82 1025.5
20260508093018 11 199 11.3 17.7 0.00 0.03 0.03 81 1025.4
20260508092008 11 180 11.3 16.1 0.00 0.03 0.03 80 1025.4
20260508091008 11 185 9.7 17.7 0.00 0.03 0.03 80 1025.3
20260508090508 11 162 12.9 17.7 0.00 0.03 0.03 80 1025.3
20260508090029 11 185 12.9 17.7 0.00 0.03 0.03 80 1025.3
20260508085508 11 160 9.7 17.7 0.00 0.03 0.03 80 1025.2
20260508085005 11 175 11.3 17.7 0.00 0.03 0.03 80 1025.2
20260508084527 11 165 11.3 16.1 0.00 0.03 0.03 80 1025.2
20260508084013 11 158 9.7 14.5 0.00 0.03 0.03 80 1025.2
20260508083507 11 169 8.0 12.9 0.00 0.03 0.03 80 1025.1
20260508083006 11 165 6.4 14.5 0.00 0.03 0.03 80 1025.0
20260508082503 11 180 8.0 19.3 0.00 0.03 0.03 80 1025.0
20260508081504 11 155 8.0 16.1 0.00 0.03 0.03 81 1024.8
20260508081006 11 166 8.0 14.5 0.00 0.03 0.03 80 1024.8
20260508080503 11 163 6.4 9.7 0.00 0.03 0.03 80 1024.8
20260508080004 11 152 4.8 14.5 0.00 0.03 0.03 80 1024.7
20260508075505 11 162 6.4 14.5 0.00 0.03 0.03 80 1024.7
20260508075004 11 169 8.0 16.1 0.00 0.03 0.03 80 1024.7
20260508074005 11 185 11.3 17.7 0.00 0.03 0.03 80 1024.6
20260508073505 11 175 8.0 14.5 0.00 0.03 0.03 80 1024.6
20260508073011 11 155 8.0 16.1 0.00 0.03 0.03 80 1024.4
20260508072003 11 160 11.3 20.9 0.00 0.03 0.03 79 1024.2
20260508071521 11 160 11.3 22.5 0.00 0.03 0.03 79 1024.2
20260508071003 12 185 12.9 24.1 0.00 0.03 0.03 79 1024.3
20260508070512 12 185 16.1 24.1 0.00 0.03 0.03 78 1024.2
20260508070016 12 180 12.9 22.5 0.00 0.03 0.03 78 1024.1
20260508065504 12 170 17.7 22.5 0.00 0.03 0.03 78 1024.0
20260508065008 12 189 12.9 27.4 0.00 0.03 0.03 78 1024.1
20260508064505 12 172 17.7 27.4 0.00 0.03 0.03 77 1024.1
20260508063505 12 164 11.3 19.3 0.00 0.03 0.03 77 1024.0
20260508062504 12 185 11.3 24.1 0.00 0.03 0.03 76 1023.9
20260508062007 12 159 14.5 25.7 0.00 0.03 0.03 75 1023.8